Woodward, OK

4:09 PM CST on February 25, 2017 (GMT -0600)
West Woodward

Weather History for KWWR - October, 2012

Change the Weather History Date:

Friday, October 5, 2012

  Actual Average (KGAG) Record (KGAG)
Temperature  
Mean Temperature 53 °F -  
Max Temperature 60 °F 77 °F 94 °F (1956)
Min Temperature 46 °F 50 °F 31 °F (1991)
Degree Days  
Heating Degree Days 12    
Growing Degree Days 3 (Base 50)    
Moisture  
Dew Point 35 °F    
Average Humidity 50    
Maximum Humidity 71    
Minimum Humidity 34    
Precipitation  
Precipitation 0.00 in - - ()
Sea Level Pressure  
Sea Level Pressure 30.24 in    
Wind  
Wind Speed 10 mph (NE)    
Max Wind Speed 17 mph    
Max Gust Speed 22 mph    
Visibility 10 miles    
Events      
Averages and records for this station are not official NWS values.
T = Trace of Precipitation, MM = Missing Value Source: NWS Daily Summary

Daily Weather History Graph

Daily Weather History Graph

Search for Another Location

Airport or City:

Trip Planner

Search our weather history database for the weather conditions in past years. The results will help you decide how hot, cold, wet, or windy it might be!

Date:

Astronomy

Oct. 05, 2012 Rise Set
Actual Time 7:37 AM CDT 7:14 PM CDT
Civil Twilight 7:11 AM CDT 7:40 PM CDT
Nautical Twilight 6:41 AM CDT 8:10 PM CDT
Astronomical Twilight 6:11 AM CDT 8:40 PM CDT
Moon 10:47 PM CDT (10/5) 12:38 PM CDT (10/5)
Length of Visible Light 12h 29m
Length of Day
11h 37m
Waning Gibbous, 74% of the Moon is Illuminated
Oct 5
Waning Gibbous
Oct 8
Last Quarter
Oct 15
New
Oct 21
First Quarter
Oct 29
Full

Hourly Weather History & Observations

Time (CDT) Temp. Windchill Dew Point Humidity Pressure Visibility Wind Dir Wind Speed Gust Speed Precip Events Conditions
12:15 AM 53.6 °F - 37.4 °F 54% 30.27 in 10.0 mi NE 8.1 mph - N/A   Overcast
12:35 AM 53.6 °F - 37.4 °F 54% 30.27 in 10.0 mi NE 9.2 mph - N/A   Overcast
12:55 AM 53.6 °F - 37.4 °F 54% 30.27 in 10.0 mi NE 8.1 mph - N/A   Overcast
1:15 AM 53.6 °F - 37.4 °F 54% 30.26 in 10.0 mi ENE 8.1 mph - N/A   Overcast
1:35 AM 53.6 °F - 37.4 °F 54% 30.26 in 10.0 mi NE 8.1 mph - N/A   Overcast
1:55 AM 53.6 °F - 37.4 °F 54% 30.26 in 10.0 mi ENE 8.1 mph - N/A   Overcast
2:15 AM 53.6 °F - 37.4 °F 54% 30.26 in 7.0 mi ENE 8.1 mph - N/A   Overcast
2:35 AM 53.6 °F - 37.4 °F 54% 30.25 in 5.0 mi ENE 6.9 mph - N/A   Haze
2:55 AM 51.8 °F - 37.4 °F 58% 30.24 in 10.0 mi NE 6.9 mph - N/A   Overcast
3:15 AM 51.8 °F - 37.4 °F 58% 30.23 in 10.0 mi ENE 5.8 mph - N/A   Overcast
3:35 AM 51.8 °F - 37.4 °F 58% 30.23 in 10.0 mi ENE 5.8 mph - N/A   Mostly Cloudy
3:55 AM 51.8 °F - 39.2 °F 62% 30.23 in 10.0 mi NE 4.6 mph - N/A   Scattered Clouds
4:15 AM 50.0 °F - 39.2 °F 66% 30.21 in 10.0 mi ENE 8.1 mph - N/A   Clear
4:35 AM 50.0 °F - 39.2 °F 66% 30.21 in 10.0 mi NE 6.9 mph - N/A   Clear
4:55 AM 50.0 °F - 39.2 °F 66% 30.22 in 10.0 mi NE 5.8 mph - N/A   Clear
5:15 AM 50.0 °F - 39.2 °F 66% 30.22 in 10.0 mi NE 5.8 mph - N/A   Clear
5:35 AM 48.2 °F - 39.2 °F 71% 30.23 in 10.0 mi NE 5.8 mph - N/A   Clear
5:55 AM 50.0 °F - 37.4 °F 62% 30.23 in 10.0 mi NE 8.1 mph - N/A   Clear
6:15 AM 48.2 °F - 37.4 °F 66% 30.23 in 10.0 mi NE 6.9 mph - N/A   Scattered Clouds
6:35 AM 48.2 °F - 37.4 °F 66% 30.23 in 10.0 mi NNE 5.8 mph - N/A   Mostly Cloudy
6:55 AM 48.2 °F - 39.2 °F 71% 30.23 in 10.0 mi NNE 5.8 mph - N/A   Overcast
7:15 AM 50.0 °F - 37.4 °F 62% 30.23 in 10.0 mi NE 8.1 mph - N/A   Overcast
7:35 AM 50.0 °F - 37.4 °F 62% 30.23 in 10.0 mi NE 9.2 mph - N/A   Overcast
7:55 AM 50.0 °F - 37.4 °F 62% 30.23 in 10.0 mi ENE 6.9 mph - N/A   Overcast
8:15 AM 50.0 °F - 35.6 °F 58% 30.22 in 10.0 mi ENE 9.2 mph - N/A   Mostly Cloudy
8:35 AM 50.0 °F - 35.6 °F 58% 30.22 in 10.0 mi ENE 10.4 mph - N/A   Scattered Clouds
8:55 AM 51.8 °F - 35.6 °F 54% 30.21 in 10.0 mi ENE 12.7 mph - N/A   Clear
9:15 AM 51.8 °F - 35.6 °F 54% 30.23 in 10.0 mi NE 12.7 mph - N/A   Clear
9:35 AM 51.8 °F - 35.6 °F 54% 30.23 in 10.0 mi ENE 12.7 mph - N/A   Clear
9:55 AM 53.6 °F - 35.6 °F 51% 30.24 in 10.0 mi ENE 11.5 mph - N/A   Clear
10:15 AM 55.4 °F - 35.6 °F 47% 30.25 in 10.0 mi NE 10.4 mph - N/A   Mostly Cloudy
10:35 AM 55.4 °F - 35.6 °F 47% 30.25 in 10.0 mi ENE 9.2 mph - N/A   Overcast
10:55 AM 53.6 °F - 35.6 °F 51% 30.25 in 10.0 mi ENE 12.7 mph - N/A   Overcast
11:15 AM 55.4 °F - 35.6 °F 47% 30.25 in 10.0 mi NE 12.7 mph - N/A   Overcast
11:35 AM 55.4 °F - 35.6 °F 47% 30.26 in 10.0 mi ENE 12.7 mph 20.7 mph N/A   Overcast
11:55 AM 55.4 °F - 35.6 °F 47% 30.26 in 10.0 mi North 13.8 mph 19.6 mph N/A   Overcast
12:15 PM 55.4 °F - 33.8 °F 44% 30.26 in 10.0 mi NE 13.8 mph 18.4 mph N/A   Overcast
12:35 PM 55.4 °F - 35.6 °F 47% 30.26 in 10.0 mi NNE 12.7 mph - N/A   Overcast
12:55 PM 57.2 °F - 33.8 °F 41% 30.26 in 10.0 mi North 11.5 mph - N/A   Overcast
1:35 PM 57.2 °F - 33.8 °F 41% 30.25 in 10.0 mi NNE 9.2 mph - N/A   Overcast
1:55 PM 59.0 °F - 33.8 °F 39% 30.23 in 10.0 mi ENE 9.2 mph 20.7 mph N/A   Overcast
2:15 PM 59.0 °F - 33.8 °F 39% 30.22 in 10.0 mi NNE 13.8 mph 17.3 mph N/A   Mostly Cloudy
2:35 PM 60.8 °F - 33.8 °F 36% 30.21 in 10.0 mi NE 15.0 mph 19.6 mph N/A   Scattered Clouds
2:55 PM 60.8 °F - 33.8 °F 36% 30.20 in 10.0 mi NE 15.0 mph - N/A   Scattered Clouds
3:15 PM 60.8 °F - 33.8 °F 36% 30.20 in 10.0 mi ENE 15.0 mph - N/A   Clear
3:35 PM 59.0 °F - 32.0 °F 36% 30.20 in 10.0 mi NNE 11.5 mph 19.6 mph N/A   Scattered Clouds
3:55 PM 60.8 °F - 32.0 °F 34% 30.19 in 10.0 mi NE 13.8 mph 21.9 mph N/A   Mostly Cloudy
4:15 PM 60.8 °F - 32.0 °F 34% 30.19 in 10.0 mi NE 15.0 mph 21.9 mph N/A   Overcast
4:35 PM 60.8 °F - 32.0 °F 34% 30.19 in 10.0 mi ENE 15.0 mph 21.9 mph N/A   Overcast
4:55 PM 59.0 °F - 32.0 °F 36% 30.19 in 10.0 mi NE 13.8 mph 19.6 mph N/A   Overcast
5:15 PM 59.0 °F - 32.0 °F 36% 30.19 in 10.0 mi NE 13.8 mph - N/A   Overcast
5:35 PM 59.0 °F - 32.0 °F 36% 30.20 in 10.0 mi NE 13.8 mph - N/A   Overcast
5:55 PM 57.2 °F - 32.0 °F 38% 30.20 in 10.0 mi NE 15.0 mph 18.4 mph N/A   Overcast
6:15 PM 57.2 °F - 32.0 °F 38% 30.21 in 10.0 mi ENE 11.5 mph 17.3 mph N/A   Overcast
6:35 PM 55.4 °F - 32.0 °F 41% 30.22 in 10.0 mi ENE 11.5 mph - N/A   Overcast
6:55 PM 55.4 °F - 32.0 °F 41% 30.23 in 10.0 mi ENE 10.4 mph - N/A   Overcast
7:15 PM 55.4 °F - 32.0 °F 41% 30.23 in 10.0 mi ENE 12.7 mph 18.4 mph N/A   Overcast
7:35 PM 53.6 °F - 32.0 °F 44% 30.24 in 10.0 mi NE 13.8 mph - N/A   Overcast
7:55 PM 53.6 °F - 32.0 °F 44% 30.25 in 10.0 mi NE 15.0 mph 19.6 mph N/A   Overcast
8:15 PM 53.6 °F - 32.0 °F 44% 30.26 in 10.0 mi NE 10.4 mph - N/A   Overcast
8:35 PM 51.8 °F - 28.4 °F 41% 30.27 in 10.0 mi NE 15.0 mph - N/A   Overcast
8:55 PM 51.8 °F - 28.4 °F 41% 30.28 in 10.0 mi NE 13.8 mph 18.4 mph N/A   Overcast
9:15 PM 51.8 °F - 26.6 °F 38% 30.28 in 10.0 mi NE 15.0 mph 18.4 mph N/A   Overcast
9:35 PM 51.8 °F - 26.6 °F 38% 30.29 in 10.0 mi NE 15.0 mph 20.7 mph N/A   Overcast
9:55 PM 50.0 °F - 26.6 °F 40% 30.29 in 10.0 mi NE 13.8 mph - N/A   Overcast
10:35 PM 48.2 °F - 32.0 °F 54% 30.32 in 10.0 mi NE 17.3 mph 21.9 mph N/A   Overcast
10:55 PM 48.2 °F - 32.0 °F 54% 30.32 in 10.0 mi NE 11.5 mph - N/A   Overcast
11:15 PM 46.4 °F 40.1 °F 32.0 °F 57% 30.33 in 10.0 mi NE 15.0 mph - N/A   Overcast
11:35 PM 46.4 °F 40.1 °F 32.0 °F 57% 30.32 in 10.0 mi NE 15.0 mph - N/A   Overcast
11:55 PM 46.4 °F 40.7 °F 32.0 °F 57% 30.33 in 10.0 mi NE 12.7 mph - N/A   Overcast